TimeEST,TemperatureF,Dew PointF,Humidity,Sea Level PressureIn,VisibilityMPH,Wind Direction,Wind SpeedMPH,Gust SpeedMPH,PrecipitationIn,Events,Conditions,WindDirDegrees,DateUTC
12:54 AM,39.2,28.4,65,29.69,10.0,West,10.4,-,N/A,,Partly Cloudy,280,2013-02-28 05:54:00
1:54 AM,39.9,26.1,58,29.70,10.0,West,13.8,18.4,N/A,,Scattered Clouds,270,2013-02-28 06:54:00
2:54 AM,37.9,25.0,60,29.71,10.0,West,5.8,-,N/A,,Scattered Clouds,280,2013-02-28 07:54:00
3:54 AM,37.9,25.0,60,29.71,10.0,South,3.5,-,N/A,,Scattered Clouds,180,2013-02-28 08:54:00
4:54 AM,37.9,23.0,55,29.72,10.0,West,9.2,-,N/A,,Mostly Cloudy,260,2013-02-28 09:54:00
5:54 AM,37.9,24.1,57,29.73,10.0,WSW,3.5,-,N/A,,Overcast,250,2013-02-28 10:54:00
6:54 AM,37.9,25.0,60,29.74,10.0,WSW,4.6,-,N/A,,Overcast,240,2013-02-28 11:54:00
7:54 AM,37.0,27.0,67,29.75,10.0,WSW,6.9,-,N/A,,Overcast,250,2013-02-28 12:54:00
8:54 AM,37.9,26.1,62,29.75,10.0,West,4.6,-,N/A,,Overcast,280,2013-02-28 13:54:00
9:54 AM,41.0,26.1,55,29.75,10.0,West,11.5,-,N/A,,Overcast,280,2013-02-28 14:54:00
10:54 AM,39.9,21.9,49,29.76,10.0,WNW,13.8,26.5,N/A,,Overcast,290,2013-02-28 15:54:00
11:54 AM,39.9,21.9,49,29.76,10.0,West,13.8,23.0,N/A,,Overcast,280,2013-02-28 16:54:00
12:54 PM,41.0,21.0,45,29.75,10.0,WNW,19.6,32.2,N/A,,Overcast,290,2013-02-28 17:54:00
1:54 PM,41.0,21.9,47,29.75,10.0,West,17.3,26.5,N/A,,Overcast,270,2013-02-28 18:54:00
2:54 PM,41.0,23.0,49,29.77,10.0,WNW,12.7,20.7,N/A,,Overcast,300,2013-02-28 19:54:00
3:54 PM,39.9,24.1,53,29.78,10.0,West,16.1,-,N/A,,Overcast,270,2013-02-28 20:54:00
4:54 PM,39.0,24.1,55,29.78,10.0,West,11.5,24.2,N/A,,Mostly Cloudy,280,2013-02-28 21:54:00
5:54 PM,37.9,24.1,57,29.82,10.0,West,10.4,19.6,N/A,,Mostly Cloudy,270,2013-02-28 22:54:00
6:54 PM,37.9,24.1,57,29.84,10.0,West,11.5,18.4,N/A,,Overcast,280,2013-02-28 23:54:00
7:54 PM,37.9,24.1,57,29.85,10.0,WNW,10.4,-,N/A,,Mostly Cloudy,290,2013-03-01 00:54:00
8:54 PM,37.9,24.1,57,29.85,10.0,WNW,16.1,25.3,N/A,,Overcast,290,2013-03-01 01:54:00
9:54 PM,37.9,24.1,57,29.85,10.0,WNW,15.0,24.2,N/A,,Overcast,300,2013-03-01 02:54:00
10:54 PM,37.9,25.0,60,29.84,10.0,WNW,12.7,-,N/A,,Mostly Cloudy,290,2013-03-01 03:54:00
11:54 PM,37.9,25.0,60,29.85,10.0,WNW,13.8,23.0,N/A,,Overcast,300,2013-03-01 04:54:00